Regional Weather Roundup
Issued by NWS Sioux Falls, SD

Home | Current Version | Previous Version | Graphics & Text | Print | Product List | Glossary Off
Versions: 1 2 3 4 5 6 7 8 9 10 11 12 13 14 15 16 17 18 19 20 21 22 23 24 25 26 27 28 29 30 31 32 33 34 35 36 37 38 39 40 41 42 43 44 45 46 47 48 49 50

000
ASUS43 KFSD 201902
RWRFSD

WEATHER ROUNDUP FOR SE SOUTH DAKOTA/SW MINNESOTA/NW IOWA
NATIONAL WEATHER SERVICE SIOUX FALLS SD
100 PM CST THU NOV 20 2014

NOTE: "FAIR" INDICATES FEW OR NO CLOUDS BELOW 12,000 FEET WITH NO
SIGNIFICANT WEATHER AND OR OBSTRUCTIONS TO VISIBILITY.


SDZ038>040-050-052>070-202000-
SOUTHEAST SOUTH DAKOTA

CITY           SKY/WX    TMP DP  RH WIND       PRES   REMARKS
CHAMBERLAIN    CLOUDY    21  13  72 CALM      30.15F
HURON          SUNNY     19   9  65 CALM      30.19S
MADISON        FAIR      16  10  79 NW10      30.15F WCI   3
MITCHELL       MOSUNNY   20  11  68 NW6       30.19F WCI  12
SIOUX FALLS    MOSUNNY   20  10  65 W12       30.18S WCI   8
WINNER         CLOUDY    26  17  68 SE7       30.10F WCI  18
YANKTON        CLOUDY    23  12  63 NW10      30.21F WCI  12
$$

MNZ071-072-080-081-089-090-097-098-202000-
SOUTHWEST MINNESOTA

CITY           SKY/WX    TMP DP  RH WIND       PRES   REMARKS
FAIRMONT       SUNNY     19   9  63 NW10      30.16F WCI   8
JACKSON        SUNNY     19   9  63 W9        30.16S WCI   9
LUVERNE        SUNNY     19  10  68 W8        30.19S WCI   9
MARSHALL       SUNNY     16   7  67 NW7       30.17F WCI   6
MONTEVIDEO     SUNNY     18   7  62 NW6       30.20R WCI   9
PIPESTONE      SUNNY     16  10  79 NW9       30.14F WCI   4
REDWOOD FALLS  SUNNY     17   7  64 NW13      30.18S WCI   4
TRACY          SUNNY     19   9  66 NW7       30.17S WCI  10
WINDOM         SUNNY     18  10  73 W12       30.16R WCI   5
WORTHINGTON    SUNNY     16   9  73 W12       30.16S WCI   3
$$

IAZ001>003-012>014-020>022-031-032-NEZ013-014-SDZ071-202000-
NORTHWEST IOWA

CITY           SKY/WX    TMP DP  RH WIND       PRES   REMARKS
CHEROKEE       SUNNY     22  13  66 NW13      30.19F WCI  10
DENISON        MOSUNNY   25  14  63 NW9       30.18S WCI  15
ESTHERVILLE    SUNNY     18  10  71 NW10      30.17S WCI   6
LE MARS        SUNNY     23  12  63 NW13      30.20F WCI  11
SIOUX CITY     SUNNY     26  14  60 NW12      30.21F WCI  16
SPENCER        SUNNY     19  11  70 W13       30.18F WCI   6
$$

ABBREVIATIONS USED IN REMARKS
   TC - TEMPERATURE IN CELSIUS
  WCI - WIND CHILL INDEX
   HX - HEAT INDEX
  VSB - VISIBILITY



USA.gov is the U.S. government's official web portal to all federal, state and local government web resources and services.